Time,TemperatureF,DewpointF,PressureIn,WindDirection,WindDirectionDegrees,WindSpeedMPH,WindSpeedGustMPH,Humidity,HourlyPrecipIn,Conditions,Clouds,dailyrainin,SoftwareType,DateUTC
2013-06-18 00:03:00,60.6,39.2,30.30,WNW,292,0.0,-999.0,45,-99.99,,,0.00,Acu-Link.com,2013-06-18 04:03:00,
2013-06-18 00:18:00,60.6,39.2,30.30,WNW,292,0.0,-999.0,45,-99.99,,,0.00,Acu-Link.com,2013-06-18 04:18:00,
2013-06-18 00:33:00,60.6,39.2,30.29,WNW,292,0.0,-999.0,45,-99.99,,,0.00,Acu-Link.com,2013-06-18 04:33:00,
2013-06-18 00:49:00,60.6,39.2,30.29,WNW,292,0.0,-999.0,45,-99.99,,,0.00,Acu-Link.com,2013-06-18 04:49:00,
2013-06-18 01:04:00,60.6,39.2,30.29,WNW,292,0.0,-999.0,45,-99.99,,,0.00,Acu-Link.com,2013-06-18 05:04:00,
2013-06-18 01:19:00,60.6,39.2,30.29,WNW,292,0.0,-999.0,45,-99.99,,,0.00,Acu-Link.com,2013-06-18 05:19:00,
2013-06-18 01:34:00,60.6,39.2,30.29,WNW,292,0.0,-999.0,45,-99.99,,,0.00,Acu-Link.com,2013-06-18 05:34:00,
2013-06-18 01:50:00,60.6,39.2,30.29,WNW,292,0.0,-999.0,45,-99.99,,,0.00,Acu-Link.com,2013-06-18 05:50:00,
2013-06-18 02:05:00,60.6,39.2,30.30,WNW,292,0.0,-999.0,45,-99.99,,,0.00,Acu-Link.com,2013-06-18 06:05:00,
2013-06-18 02:20:00,60.6,39.2,30.29,WNW,292,0.0,-999.0,45,-99.99,,,0.00,Acu-Link.com,2013-06-18 06:20:00,
2013-06-18 02:35:00,60.6,39.2,30.29,WNW,292,0.0,-999.0,45,-99.99,,,0.00,Acu-Link.com,2013-06-18 06:35:00,
2013-06-18 02:50:00,60.6,39.2,30.29,WNW,292,0.0,-999.0,45,-99.99,,,0.00,Acu-Link.com,2013-06-18 06:50:00,
2013-06-18 03:06:00,60.6,39.2,30.28,WNW,292,0.0,-999.0,45,-99.99,,,0.00,Acu-Link.com,2013-06-18 07:06:00,
2013-06-18 03:21:00,60.6,39.2,30.27,WNW,292,0.0,-999.0,45,-99.99,,,0.00,Acu-Link.com,2013-06-18 07:21:00,
2013-06-18 03:36:00,60.6,39.2,30.27,WNW,292,0.0,-999.0,45,-99.99,,,0.00,Acu-Link.com,2013-06-18 07:36:00,
2013-06-18 03:51:00,57.4,49.9,30.27,ESE,112,0.0,-999.0,76,-99.99,,,0.00,Acu-Link.com,2013-06-18 07:51:00,
2013-06-18 04:07:00,57.4,49.9,30.27,SSE,157,0.0,-999.0,76,-99.99,,,0.00,Acu-Link.com,2013-06-18 08:07:00,
2013-06-18 04:22:00,57.4,49.9,30.27,SSE,157,0.0,-999.0,76,-99.99,,,0.00,Acu-Link.com,2013-06-18 08:22:00,
2013-06-18 04:37:00,57.4,49.9,30.27,SSE,157,0.0,-999.0,76,-99.99,,,0.00,Acu-Link.com,2013-06-18 08:37:00,
2013-06-18 04:52:00,57.4,49.9,30.26,SSE,157,0.0,-999.0,76,-99.99,,,0.00,Acu-Link.com,2013-06-18 08:52:00,
2013-06-18 05:07:00,57.4,49.9,30.26,SSE,157,0.0,-999.0,76,-99.99,,,0.00,Acu-Link.com,2013-06-18 09:07:00,
2013-06-18 05:22:00,57.4,49.9,30.27,SSE,157,0.0,-999.0,76,-99.99,,,0.00,Acu-Link.com,2013-06-18 09:22:00,
2013-06-18 05:37:00,57.4,49.9,30.27,SSE,157,0.0,-999.0,76,-99.99,,,0.00,Acu-Link.com,2013-06-18 09:37:00,
2013-06-18 05:53:00,57.4,49.9,30.27,SSE,157,0.0,-999.0,76,-99.99,,,0.00,Acu-Link.com,2013-06-18 09:53:00,
2013-06-18 06:08:00,56.3,55.7,30.28,West,270,0.0,-999.0,98,-99.99,,,0.00,Acu-Link.com,2013-06-18 10:08:00,
2013-06-18 06:23:00,56.3,55.7,30.28,West,270,0.0,-999.0,98,-99.99,,,0.00,Acu-Link.com,2013-06-18 10:23:00,
2013-06-18 06:38:00,56.3,55.7,30.27,West,270,0.0,-999.0,98,-99.99,,,0.00,Acu-Link.com,2013-06-18 10:38:00,
2013-06-18 06:53:00,56.3,55.7,30.28,West,270,0.0,-999.0,98,-99.99,,,0.00,Acu-Link.com,2013-06-18 10:53:00,
2013-06-18 07:09:00,56.3,55.7,30.28,West,270,0.0,-999.0,98,-99.99,,,0.00,Acu-Link.com,2013-06-18 11:09:00,
2013-06-18 07:24:00,56.3,55.7,30.28,West,270,0.0,-999.0,98,-99.99,,,0.00,Acu-Link.com,2013-06-18 11:24:00,
2013-06-18 07:39:00,66.0,65.7,30.29,West,270,0.0,-999.0,99,-99.99,,,0.00,Acu-Link.com,2013-06-18 11:39:00,
2013-06-18 07:54:00,69.3,69.0,30.29,South,180,0.0,-999.0,99,-99.99,,,0.00,Acu-Link.com,2013-06-18 11:54:00,
2013-06-18 08:09:00,73.0,72.7,30.29,East,90,2.7,-999.0,99,-99.99,,,0.00,Acu-Link.com,2013-06-18 12:09:00,
2013-06-18 08:25:00,75.6,75.3,30.29,ENE,67,2.7,-999.0,99,-99.99,,,0.00,Acu-Link.com,2013-06-18 12:25:00,
2013-06-18 08:40:00,74.5,74.2,30.29,NNE,22,4.3,-999.0,99,-99.99,,,0.00,Acu-Link.com,2013-06-18 12:40:00,
2013-06-18 08:55:00,76.6,76.3,30.29,ESE,112,0.0,-999.0,99,-99.99,,,0.00,Acu-Link.com,2013-06-18 12:55:00,
2013-06-18 09:10:00,74.1,73.8,30.29,WSW,247,1.6,-999.0,99,-99.99,,,0.00,Acu-Link.com,2013-06-18 13:10:00,
2013-06-18 09:26:00,76.3,76.0,30.30,NW,315,2.2,-999.0,99,-99.99,,,0.00,Acu-Link.com,2013-06-18 13:26:00,
2013-06-18 09:41:00,77.7,77.4,30.29,SSE,157,1.6,-999.0,99,-99.99,,,0.00,Acu-Link.com,2013-06-18 13:41:00,
2013-06-18 09:56:00,77.2,76.9,30.29,WNW,292,4.3,-999.0,99,-99.99,,,0.00,Acu-Link.com,2013-06-18 13:56:00,
2013-06-18 10:11:00,77.7,77.4,30.29,ENE,67,4.3,-999.0,99,-99.99,,,0.00,Acu-Link.com,2013-06-18 14:11:00,
2013-06-18 10:26:00,76.3,76.0,30.28,SE,135,1.1,-999.0,99,-99.99,,,0.00,Acu-Link.com,2013-06-18 14:26:00,
2013-06-18 10:42:00,76.3,76.0,30.28,NE,45,3.8,-999.0,99,-99.99,,,0.00,Acu-Link.com,2013-06-18 14:42:00,
2013-06-18 10:57:00,78.6,78.3,30.28,East,90,4.7,-999.0,99,-99.99,,,0.00,Acu-Link.com,2013-06-18 14:57:00,
2013-06-18 11:12:00,78.1,77.8,30.27,West,270,1.6,-999.0,99,-99.99,,,0.00,Acu-Link.com,2013-06-18 15:12:00,
2013-06-18 11:27:00,77.5,77.2,30.27,NE,45,3.1,-999.0,99,-99.99,,,0.00,Acu-Link.com,2013-06-18 15:27:00,
2013-06-18 11:42:00,79.9,79.6,30.27,NNE,22,2.7,-999.0,99,-99.99,,,0.00,Acu-Link.com,2013-06-18 15:42:00,
2013-06-18 11:58:00,79.2,78.9,30.27,SSW,202,2.2,-999.0,99,-99.99,,,0.00,Acu-Link.com,2013-06-18 15:58:00,
2013-06-18 12:13:00,78.1,77.8,30.26,ESE,112,0.0,-999.0,99,-99.99,,,0.00,Acu-Link.com,2013-06-18 16:13:00,
2013-06-18 12:28:00,79.5,79.2,30.25,North,0,2.7,-999.0,99,-99.99,,,0.00,Acu-Link.com,2013-06-18 16:28:00,
2013-06-18 12:43:00,79.9,79.6,30.25,East,90,2.7,-999.0,99,-99.99,,,0.00,Acu-Link.com,2013-06-18 16:43:00,
2013-06-18 12:58:00,80.4,80.1,30.24,NE,45,4.3,-999.0,99,-99.99,,,0.00,Acu-Link.com,2013-06-18 16:58:00,
2013-06-18 13:14:00,80.6,80.3,30.24,SW,225,0.0,-999.0,99,-99.99,,,0.00,Acu-Link.com,2013-06-18 17:14:00,
2013-06-18 13:29:00,81.5,81.2,30.23,WNW,292,4.7,-999.0,99,-99.99,,,0.00,Acu-Link.com,2013-06-18 17:29:00,
2013-06-18 13:44:00,82.6,82.3,30.22,West,270,8.3,-999.0,99,-99.99,,,0.00,Acu-Link.com,2013-06-18 17:44:00,
2013-06-18 13:59:00,80.8,80.5,30.20,North,0,1.1,-999.0,99,-99.99,,,0.00,Acu-Link.com,2013-06-18 17:59:00,
2013-06-18 14:15:00,80.6,80.3,30.20,NE,45,3.1,-999.0,99,-99.99,,,0.00,Acu-Link.com,2013-06-18 18:15:00,
2013-06-18 14:30:00,78.4,78.1,30.20,ESE,112,1.6,-999.0,99,-99.99,,,0.00,Acu-Link.com,2013-06-18 18:30:00,
2013-06-18 14:45:00,80.1,79.8,30.19,WSW,247,4.3,-999.0,99,-99.99,,,0.00,Acu-Link.com,2013-06-18 18:45:00,
2013-06-18 15:00:00,77.4,77.1,30.21,ESE,112,8.9,-999.0,99,-99.99,,,0.00,Acu-Link.com,2013-06-18 19:00:00,
2013-06-18 15:15:00,72.1,71.8,30.21,SSE,157,3.1,-999.0,99,-99.99,,,0.00,Acu-Link.com,2013-06-18 19:15:00,
2013-06-18 15:31:00,71.2,70.9,30.21,WNW,292,4.3,-999.0,99,-99.99,,,0.00,Acu-Link.com,2013-06-18 19:31:00,
2013-06-18 15:46:00,69.8,69.5,30.21,ENE,67,5.1,-999.0,99,-99.99,,,0.00,Acu-Link.com,2013-06-18 19:46:00,
2013-06-18 16:01:00,69.8,69.5,30.23,East,90,1.6,-999.0,99,-99.99,,,0.00,Acu-Link.com,2013-06-18 20:01:00,
2013-06-18 16:16:00,68.2,67.9,30.27,East,90,3.1,-999.0,99,-99.99,,,0.01,Acu-Link.com,2013-06-18 20:16:00,
2013-06-18 16:31:00,66.2,33.0,30.27,NE,45,1.6,-999.0,29,-99.99,,,0.01,Acu-Link.com,2013-06-18 20:31:00,
2013-06-18 16:47:00,65.3,49.7,30.27,NE,45,5.8,-999.0,57,-99.99,,,0.01,Acu-Link.com,2013-06-18 20:47:00,
2013-06-18 17:02:00,64.9,54.5,30.26,NE,45,2.2,-999.0,69,-99.99,,,0.02,Acu-Link.com,2013-06-18 21:02:00,
2013-06-18 17:17:00,64.4,48.4,30.26,East,90,3.1,-999.0,56,-99.99,,,0.02,Acu-Link.com,2013-06-18 21:17:00,
2013-06-18 17:32:00,64.0,53.3,30.26,ENE,67,1.6,-999.0,68,-99.99,,,0.02,Acu-Link.com,2013-06-18 21:32:00,
2013-06-18 17:47:00,63.5,55.8,30.26,ESE,112,2.7,-999.0,76,-99.99,,,0.04,Acu-Link.com,2013-06-18 21:47:00,
2013-06-18 18:03:00,63.9,56.5,30.26,ENE,67,1.6,-999.0,77,-99.99,,,0.05,Acu-Link.com,2013-06-18 22:03:00,
2013-06-18 18:18:00,63.9,56.1,30.26,ESE,112,4.3,-999.0,76,-99.99,,,0.08,Acu-Link.com,2013-06-18 22:18:00,
2013-06-18 18:33:00,63.5,57.9,30.26,East,90,2.7,-999.0,82,-99.99,,,0.11,Acu-Link.com,2013-06-18 22:33:00,
2013-06-18 18:48:00,63.5,57.9,30.27,East,90,2.7,-999.0,82,-99.99,,,0.11,Acu-Link.com,2013-06-18 22:48:00,
2013-06-18 19:03:00,63.5,57.9,30.27,East,90,2.7,-999.0,82,-99.99,,,0.11,Acu-Link.com,2013-06-18 23:03:00,
2013-06-18 19:19:00,63.5,57.9,30.27,East,90,2.7,-999.0,82,-99.99,,,0.11,Acu-Link.com,2013-06-18 23:19:00,
2013-06-18 19:34:00,63.5,57.9,30.25,East,90,2.7,-999.0,82,-99.99,,,0.11,Acu-Link.com,2013-06-18 23:34:00,
2013-06-18 19:49:00,63.5,57.9,30.26,East,90,2.7,-999.0,82,-99.99,,,0.11,Acu-Link.com,2013-06-18 23:49:00,
2013-06-18 20:04:00,63.5,57.9,30.26,East,90,2.7,-999.0,82,-99.99,,,0.11,Acu-Link.com,2013-06-19 00:04:00,
2013-06-18 20:20:00,63.5,57.9,30.26,East,90,2.7,-999.0,82,-99.99,,,0.11,Acu-Link.com,2013-06-19 00:20:00,
2013-06-18 20:35:00,63.5,57.9,30.26,East,90,2.7,-999.0,82,-99.99,,,0.11,Acu-Link.com,2013-06-19 00:35:00,
2013-06-18 20:50:00,61.3,56.1,30.26,ESE,112,2.7,-999.0,83,-99.99,,,0.21,Acu-Link.com,2013-06-19 00:50:00,
2013-06-18 21:05:00,61.2,54.9,30.27,ENE,67,4.3,-999.0,80,-99.99,,,0.21,Acu-Link.com,2013-06-19 01:05:00,
2013-06-18 21:20:00,61.0,54.4,30.27,ENE,67,2.7,-999.0,79,-99.99,,,0.21,Acu-Link.com,2013-06-19 01:20:00,
2013-06-18 21:36:00,60.8,53.5,30.27,ENE,67,6.3,-999.0,77,-99.99,,,0.21,Acu-Link.com,2013-06-19 01:36:00,
2013-06-18 21:51:00,60.8,51.7,30.28,ENE,67,2.2,-999.0,72,-99.99,,,0.21,Acu-Link.com,2013-06-19 01:51:00,
2013-06-18 22:06:00,60.6,52.6,30.29,NE,45,5.1,-999.0,75,-99.99,,,0.21,Acu-Link.com,2013-06-19 02:06:00,
2013-06-18 22:21:00,60.3,45.9,30.29,ENE,67,4.3,-999.0,59,-99.99,,,0.21,Acu-Link.com,2013-06-19 02:21:00,
2013-06-18 22:36:00,59.9,42.2,30.29,NE,45,2.2,-999.0,52,-99.99,,,0.21,Acu-Link.com,2013-06-19 02:36:00,
2013-06-18 22:52:00,59.7,43.5,30.28,ESE,112,2.2,-999.0,55,-99.99,,,0.21,Acu-Link.com,2013-06-19 02:52:00,
2013-06-18 23:07:00,59.5,47.8,30.29,East,90,2.7,-999.0,65,-99.99,,,0.21,Acu-Link.com,2013-06-19 03:07:00,
2013-06-18 23:22:00,59.4,41.2,30.29,NE,45,4.3,-999.0,51,-99.99,,,0.22,Acu-Link.com,2013-06-19 03:22:00,
2013-06-18 23:37:00,59.2,42.1,30.29,West,270,5.8,-999.0,53,-99.99,,,0.22,Acu-Link.com,2013-06-19 03:37:00,
2013-06-18 23:52:00,58.1,40.6,30.30,NNE,22,5.8,-999.0,52,-99.99,,,0.22,Acu-Link.com,2013-06-19 03:52:00,